FW8630 Weather Reports


time (UTC)temp
F
wind
direction
speed
knots
gust
knots
rain 1hr
in
rain 24hr
in
rain mn
in
humidity
%
barometer
mb
20260831114550 64 214 3.5 10.4 0.00 0.03 0.00 90 1010.9
20260831113049 64 227 2.6 6.1 0.00 0.03 0.00 90 1011.0
20260831111548 64 242 2.6 7.0 0.00 0.03 0.00 89 1011.1
20260831110048 65 220 3.5 7.0 0.00 0.03 0.00 87 1011.1
20260831104548 64 229 2.6 6.1 0.00 0.03 0.00 88 1011.1
20260831103045 64 224 3.5 8.7 0.00 0.03 0.00 89 1011.1
20260831101543 65 169 4.3 7.8 0.00 0.03 0.00 89 1011.0
20260831100041 64 228 2.6 7.8 0.00 0.03 0.00 89 1011.0
20260831094540 64 245 3.5 7.8 0.00 0.03 0.00 89 1010.9
20260831093037 64 198 2.6 7.8 0.00 0.03 0.00 88 1010.9
20260831091535 64 219 2.6 5.2 0.00 0.03 0.00 89 1010.8
20260831090034 64 228 3.5 7.8 0.00 0.03 0.00 88 1010.7
20260831084532 63 227 2.6 8.7 0.00 0.03 0.00 90 1010.5
20260831083038 62 248 2.6 6.1 0.00 0.03 0.00 91 1010.5
20260831081529 62 244 3.5 7.8 0.00 0.03 0.00 91 1010.5
20260831080028 61 251 2.6 7.8 0.00 0.03 0.00 91 1010.4
20260831074527 61 238 2.6 8.7 0.00 0.03 0.00 90 1010.3
20260831073026 61 247 2.6 7.0 0.00 0.03 0.00 90 1010.4
20260831071524 61 248 2.6 7.8 0.00 0.03 0.00 89 1010.4
20260831070026 61 229 2.6 7.8 0.00 0.03 0.00 89 1010.0
20260831064522 61 245 3.5 7.8 0.00 0.03 0.00 90 1009.9
20260831063020 61 233 3.5 9.6 0.00 0.03 0.00 89 1009.8
20260831061519 61 223 3.5 10.4 0.00 0.03 0.00 91 1009.7
20260831060017 61 257 3.5 9.6 0.00 0.03 0.00 91 1009.4
20260831054516 61 243 4.3 11.3 0.00 0.03 0.00 91 1009.3
20260831053014 61 248 3.5 7.8 0.00 0.03 0.00 92 1009.4
20260831051512 61 234 3.5 9.6 0.00 0.03 0.00 91 1009.4
20260831050009 62 234 3.5 9.6 0.00 0.03 0.00 89 1009.0
20260831044507 62 240 4.3 9.6 0.00 0.03 0.00 89 1009.1
20260831043003 62 257 3.5 9.6 0.00 0.03 0.00 89 1008.9
20260831041502 62 249 3.5 12.2 0.00 0.03 0.00 89 1008.9
20260831040058 62 220 5.2 10.4 0.00 0.03 0.00 89 1008.6
20260831034555 62 240 4.3 7.8 0.00 0.03 0.00 89 1008.4
20260831033053 62 263 3.5 11.3 0.00 0.03 0.00 89 1008.2
20260831031552 62 219 2.6 14.8 0.00 0.03 0.00 89 1008.0
20260831030055 62 243 2.6 13.9 0.00 0.03 0.00 89 1008.0
20260831024607 62 236 5.2 12.2 0.00 0.03 0.00 89 1007.8
20260831023046 62 221 4.3 13.9 0.00 0.03 0.00 89 1007.7
20260831021551 62 236 4.3 13.9 0.00 0.03 0.00 89 1007.5
20260831020044 63 243 4.3 13.0 0.00 0.03 0.00 89 1007.3
20260831014541 63 251 5.2 11.3 0.00 0.03 0.00 89 1007.2
20260831013040 63 219 4.3 13.0 0.00 0.03 0.00 89 1007.1
20260831011550 63 171 4.3 9.6 0.00 0.03 0.00 88 1007.0
20260831003037 63 228 6.1 12.2 0.00 0.03 0.00 86 1006.7
20260830234523 64 203 3.5 6.1 0.00 0.03 0.00 89 1006.5
20260830233024 64 201 3.5 7.0 0.00 0.03 0.00 89 1006.4
20260830231520 64 205 2.6 7.0 0.00 0.03 0.00 89 1006.3
20260830230019 63 221 3.5 8.7 0.00 0.03 0.00 89 1006.2
20260830224522 63 191 3.5 9.6 0.00 0.03 0.00 89 1006.1
20260830223016 63 180 4.3 9.6 0.00 0.03 0.00 89 1006.2
20260830221515 63 223 3.5 13.9 0.00 0.03 0.00 89 1006.1
20260830220015 64 202 5.2 12.2 0.00 0.03 0.03 89 1006.1
20260830214612 64 198 5.2 15.6 0.00 0.03 0.03 89 1006.2
20260830213010 64 178 6.1 17.4 0.00 0.03 0.03 89 1006.2
20260830211510 64 202 4.3 13.0 0.00 0.03 0.03 89 1006.2
20260830210008 63 184 6.1 15.6 0.00 0.03 0.03 89 1006.2
20260830204506 63 169 7.8 20.0 0.00 0.03 0.03 89 1006.3
20260830203004 63 211 7.0 20.0 0.00 0.03 0.03 89 1006.4
20260830201506 63 223 5.2 13.9 0.00 0.03 0.03 89 1006.5
20260830200003 63 167 7.0 13.0 0.00 0.03 0.03 89 1006.5
20260830194502 63 163 5.2 14.8 0.00 0.03 0.03 89 1006.5
20260830193105 63 198 5.2 12.2 0.00 0.03 0.03 89 1006.5
20260830191559 63 207 5.2 12.2 0.00 0.03 0.03 89 1006.6
20260830190055 63 195 5.2 13.0 0.00 0.03 0.03 88 1006.6
20260830184605 63 193 5.2 11.3 0.02 0.03 0.03 88 1006.9
20260830183100 63 210 3.5 13.0 0.03 0.03 0.03 88 1007.0
20260830181551 63 190 4.3 11.3 0.03 0.03 0.03 88 1007.1
20260830180049 63 167 4.3 11.3 0.03 0.03 0.03 89 1007.0
20260830174547 63 163 2.6 10.4 0.02 0.02 0.02 91 1007.2
20260830173046 64 155 5.2 12.2 0.00 0.00 0.00 93 1007.3
20260830171551 64 192 5.2 13.0 0.00 0.00 0.00 92 1007.3
20260830170044 64 197 6.1 13.9 0.00 0.00 0.00 92 1007.3
20260830164545 64 153 3.5 12.2 0.00 0.00 0.00 93 1007.3
20260830163047 64 166 5.2 14.8 0.00 0.00 0.00 93 1007.5
20260830161544 64 184 4.3 13.0 0.00 0.00 0.00 94 1007.5
20260830160040 65 198 3.5 12.2 0.00 0.00 0.00 94 1007.6
20260830154539 65 214 4.3 9.6 0.00 0.00 0.00 93 1007.7
20260830153037 65 177 3.5 12.2 0.00 0.00 0.00 92 1007.8
20260830151543 66 176 4.3 13.0 0.00 0.00 0.00 92 1008.0
20260830150038 66 193 5.2 15.6 0.00 0.00 0.00 92 1008.0
20260830144543 66 178 7.8 15.6 0.00 0.00 0.00 92 1008.0
20260830143037 66 224 4.3 13.9 0.00 0.00 0.00 92 1008.1
20260830141537 66 206 7.8 15.6 0.00 0.00 0.00 92 1008.1
20260830140032 66 200 6.1 13.9 0.00 0.00 0.00 92 1008.2
20260830134538 66 191 6.1 13.0 0.00 0.00 0.00 93 1008.3
20260830133031 65 200 3.5 10.4 0.00 0.00 0.00 93 1008.3
20260830131532 66 192 5.2 13.9 0.00 0.00 0.00 92 1008.4
20260830130028 67 183 4.3 17.4 0.00 0.00 0.00 90 1008.2
20260830124527 67 202 6.1 15.6 0.00 0.00 0.00 89 1008.3
20260830123027 67 147 5.2 15.6 0.00 0.00 0.00 89 1008.5
20260830121525 67 178 6.1 13.9 0.00 0.00 0.00 89 1008.5
20260830120024 67 182 4.3 16.5 0.00 0.00 0.00 88 1008.4